Pian Rosa, Italy

7:04 AM CEST on July 28, 2017 (GMT +0200)
Pian Rosa

Weather History for LIMH - March, 2014

Change the Weather History Date:

Monday, March 31, 2014

  Actual Average Record
Temperature  
Mean Temperature 31 °F -  
Max Temperature 39 °F 22 °F 39 °F (2014)
Min Temperature 23 °F 11 °F 3 °F (2013)
Degree Days  
Heating Degree Days 34    
Moisture  
Dew Point -5 °F    
Average Humidity 18    
Maximum Humidity 34    
Minimum Humidity 7    
Precipitation  
Precipitation 0.00 in - - ()
Sea Level Pressure  
Sea Level Pressure 30.10 in    
Wind  
Wind Speed 4 mph ()    
Max Wind Speed 10 mph    
Max Gust Speed -    
Visibility 12.7 miles    
Events      
Averages and records for this station are not official NWS values.
T = Trace of Precipitation, MM = Missing Value Source: Averaged Metar Reports

Daily Weather History Graph

Daily Weather History Graph

Search for Another Location

Airport or City:

Trip Planner

Search our weather history database for the weather conditions in past years. The results will help you decide how hot, cold, wet, or windy it might be!

Date:

Astronomy

Mar. 31, 2014 Rise Set
Actual Time 7:11 AM CEST 7:56 PM CEST
Civil Twilight 6:41 AM CEST 8:26 PM CEST
Nautical Twilight 6:05 AM CEST 9:02 PM CEST
Astronomical Twilight 5:28 AM CEST 9:39 PM CEST
Moon 7:22 AM CEST (3/31) 9:01 PM CEST (3/31)
Length of Visible Light 13h 44m
Length of Day
12h 44m
New Moon, 1% of the Moon is Illuminated
Mar 31
New Moon
Apr 7
First Quarter
Apr 15
Full
Apr 22
Last Quarter
Apr 29
New

Hourly Weather History & Observations

Time (CEST) Temp. Windchill Dew Point Humidity Pressure Visibility Wind Dir Wind Speed Gust Speed Precip Events Conditions
12:00 AM 24 °F - -9 °F 11%  in 6 mi East 5.8 mph - -  
12:55 AM 24.8 °F - -9.4 °F 22% 30.15 in - Variable 1.2 mph - N/A   Clear
1:00 AM 24 °F - -9 °F 11%  in 6 mi 1.2 mph - -  
1:55 AM 24.8 °F - -9.4 °F 22% 30.15 in - Variable 2.3 mph - N/A   Clear
2:00 AM 24 °F - -9 °F 11%  in 6 mi 2.3 mph - -  
2:55 AM 24.8 °F - -11.2 °F 20% 30.12 in - Variable 1.2 mph - N/A   Clear
3:00 AM 24 °F - -11 °F 9%  in 6 mi 1.2 mph - -  
3:55 AM 24.8 °F 19.1 °F -11.2 °F 20% 30.12 in - ESE 4.6 mph - N/A   Clear
4:00 AM 24 °F - -11 °F 9%  in 6 mi ESE 4.6 mph - -  
4:55 AM 24.8 °F 19.1 °F -11.2 °F 20% 30.09 in - East 4.6 mph - N/A   Clear
5:00 AM 24 °F - -11 °F 9%  in 6 mi East 4.6 mph - -  
5:55 AM 24.8 °F 17.9 °F -9.4 °F 22% 30.09 in - ESE 5.8 mph - N/A   Clear
6:00 AM 24 °F - -10 °F 10%  in 6 mi ESE 5.8 mph - -  
6:55 AM 23.0 °F 13.9 °F -7.6 °F 26% 30.09 in - East 8.1 mph - N/A   Clear
7:00 AM 24 °F - -7 °F 12%  in 19 mi East 8.1 mph - -  
7:55 AM 23.0 °F 13.1 °F -5.8 °F 28% 30.09 in - East 9.2 mph - N/A   Clear
8:00 AM 23 °F - -6 °F 14%  in 47 mi East 9.2 mph - -  
8:55 AM 23.0 °F 13.1 °F -4.0 °F 31% 30.09 in - ESE 9.2 mph - N/A   Clear
9:00 AM 24 °F - -3 °F 16%  in 31 mi ESE 9.2 mph - -   Clear
9:55 AM 24.8 °F 17.9 °F -0.4 °F 34% 30.09 in - East 5.8 mph - N/A   Clear
10:00 AM 25 °F - -1 °F 18%  in 31 mi East 5.8 mph - -   Clear
10:55 AM 28.4 °F 23.3 °F -0.4 °F 29% 30.09 in - SSE 4.6 mph - N/A   Clear
11:00 AM 29 °F - -1 °F 14%  in 19 mi SSE 4.6 mph - -   Clear
11:55 AM 32.0 °F 28.7 °F 1.4 °F 27% 30.09 in - Variable 3.5 mph - N/A   Clear
12:00 PM 33 °F - 1 °F 13%  in 19 mi 3.5 mph - -   Clear
12:55 PM 33.8 °F 29.6 °F -5.8 °F 18% 30.12 in - SW 4.6 mph - N/A   Clear
1:00 PM 33 °F - -7 °F 7%  in 19 mi SW 4.6 mph - -   Clear
1:55 PM 32.0 °F 28.7 °F -7.6 °F 18% 30.09 in - Variable 3.5 mph - N/A   Clear
2:00 PM 33 °F - -7 °F 7%  in 19 mi 3.5 mph - -   Clear
2:55 PM 33.8 °F - -4.0 °F 20% 30.09 in - Calm Calm - N/A   Clear
3:00 PM 33 °F - -5 °F 9%  in 19 mi Calm Calm - -   Clear
3:55 PM 33.8 °F - -2.2 °F 22% 30.09 in - Calm Calm - N/A   Clear
4:00 PM 33 °F - -3 °F 10%  in 19 mi Calm Calm - -   Clear
4:55 PM 32.0 °F - -0.4 °F 25% 30.09 in - Calm Calm - N/A   Clear
5:00 PM 33 °F - -0 °F 12%  in 19 mi Calm Calm - -   Clear
5:55 PM 32.0 °F - 1.4 °F 27% 30.09 in - Calm Calm - N/A   Clear
6:00 PM 32 °F - 1 °F 13%  in 19 mi Calm Calm - -   Clear
6:55 PM 30.2 °F - -2.2 °F 25% 30.09 in - Calm Calm - N/A   Clear
7:00 PM 30 °F - -2 °F 12%  in 19 mi Calm Calm - -   Clear
7:55 PM 28.4 °F 23.3 °F -2.2 °F 27% 30.09 in - East 4.6 mph - N/A   Clear
8:00 PM 28 °F - -2 °F 14%  in 12 mi East 4.6 mph - -   Clear
8:55 PM 26.6 °F 22.6 °F -2.2 °F 29% 30.09 in - SW 3.5 mph - N/A   Clear
9:00 PM 27 °F - -2 °F 15%  in 9 mi SW 3.5 mph - -   Clear
9:55 PM 26.6 °F 22.6 °F -2.2 °F 29% 30.09 in - SE 3.5 mph - N/A   Clear
10:00 PM 26 °F - -2 °F 16%  in 7 mi SE 3.5 mph - -   Clear
10:55 PM 26.6 °F 16.8 °F -2.2 °F 29% 30.09 in - SE 10.4 mph - N/A   Clear
11:00 PM 26 °F - -2 °F 15%  in 7 mi SE 10.4 mph - -   Clear
11:55 PM 24.8 °F 15.3 °F -4.0 °F 28% 30.09 in - SSE 9.2 mph - N/A   Clear